[[{"header":{"parameterUnit":"m.s-1","parameterCategory":1,"la1":30.2991,"la2":30.254,"lo1":-89.0895,"lo2":-89.0444,"dy":0.0017,"dx":0.0017,"nx":28,"ny":28,"refTime":"2025-11-14T09:00:00:Z","depth":0,"parameterNumber":2,"parameterNumberName":"U-component_of_WINDS"},"data":[0,0,0,0,0,0,0,0,0,0,0,0,0,0,0,0,0,0,0,0,0,0,0,0,0,0,0,0,0,0,0,0,0,0,0,0,0,0,0,0,0,0,0,0,0,0,0,0,0,0,0,0,0,0,0,0,0,0,3.4319,3.432,0,3.448,3.4482,3.4484,3.4486,3.4483,3.4481,3.4479,3.4647,3.4653,3.4659,0,0,0,0,0,0,0,0,0,0,0,0,0,3.4012,3.4018,3.4318,3.432,3.4323,3.448,3.4482,3.4484,3.4486,3.4483,3.4481,3.4479,3.4645,3.4652,3.466,0,0,0,0,0,0,0,0,0,0,0,0,0,3.4157,3.402,3.4318,3.4342,3.4346,3.448,3.4482,3.4485,3.4486,3.4483,3.448,3.4477,3.4642,3.4651,3.4661,3.4782,0,0,3.469,3.4694,0,0,0,0,0,0,0,0,3.4148,3.4168,3.4337,3.4341,3.4345,3.446,3.4436,3.4585,3.4487,3.4433,3.4479,3.4476,3.4587,3.4601,3.4638,3.479,3.4797,3.4691,3.4697,3.4701,3.4703,0,0,0,0,0,0,0,3.4138,3.4161,3.4383,3.4339,3.4344,3.4345,3.4362,3.4464,3.4526,3.4438,3.4438,3.4457,3.4589,3.4629,3.4642,3.4799,3.4691,3.4699,3.4705,3.4709,3.5058,3.5061,0,0,0,0,0,0,3.4123,3.4153,3.4377,3.4387,3.4237,3.4353,3.4372,3.4426,3.4524,3.4536,3.446,3.4457,3.4614,3.4631,3.4648,3.4796,3.4701,3.471,3.4715,3.5054,3.5059,3.5063,0,0,0,0,0,0,3.4117,3.4143,3.4371,3.427,3.4299,3.4362,3.4422,3.4431,3.4471,3.4541,3.4552,3.4489,3.4612,3.4634,3.4748,3.4801,3.4714,3.4723,3.505,3.5056,3.5061,3.5092,0,0,0,0,0,0,3.4108,3.4141,3.4187,3.4271,3.4305,3.4468,3.4425,3.4436,3.4487,3.4485,3.4572,3.4583,3.4612,3.4734,3.4758,3.4813,3.473,3.5046,3.5053,3.5059,3.5087,3.5098,3.5108,0,0,0,0,0,3.4097,3.419,3.419,3.4217,3.4364,3.4471,3.449,3.4521,3.4491,3.4539,3.4584,3.458,3.4792,3.4746,3.4772,3.4831,3.5043,3.5051,3.5058,3.5082,3.5096,3.5107,0,0,0,0,0,0,3.4111,3.4201,3.4202,3.4325,3.439,3.4471,3.4532,3.4534,3.461,3.4604,3.464,3.4659,3.4773,3.4814,3.476,3.4954,3.4914,3.4927,3.4922,3.4936,3.4946,3.4934,3.4738,0,0,0,0,0,3.4128,3.4208,3.4283,3.4384,3.4417,3.4469,3.4517,3.4534,3.4604,3.4632,3.4685,3.4753,3.4835,3.4888,3.4967,3.5093,3.5112,3.5147,3.5157,3.5165,3.5177,3.5246,3.5262,3.5089,3.5089,3.5089,0,0,3.4165,3.4224,3.4272,3.4388,3.4441,3.4523,3.4492,3.458,3.4641,3.4645,3.4755,3.4797,3.4875,3.4996,3.5051,3.5033,3.5229,3.5176,3.5182,3.5189,3.5256,3.5272,3.5287,3.5094,3.5093,3.5092,0,0,3.4273,3.4326,3.4416,3.447,3.455,3.4584,3.4606,3.4687,3.4714,3.4826,3.483,3.4904,3.5044,3.51,3.5146,3.5276,3.5276,3.5301,3.5355,3.5422,3.5436,3.5448,3.5494,3.551,3.5312,3.5312,3.5312,0,3.4309,3.4432,3.4462,3.4551,3.4601,3.4609,3.47,3.4751,3.4853,3.4888,3.4866,3.5042,3.5096,3.5229,3.526,3.5298,3.5324,3.5291,3.5432,3.5444,3.5456,3.55,3.5518,3.5315,3.5314,3.5314,3.5314,0,3.4472,3.4557,3.462,3.4718,3.4776,3.4865,3.4909,3.4965,3.4978,3.5014,3.5127,3.5192,3.5284,3.5317,3.5331,3.5452,3.5439,3.5424,3.5385,3.5475,3.5517,3.5534,3.5318,3.5317,3.5316,3.5316,0,0,3.4593,3.4706,3.4729,3.4773,3.4863,3.4929,3.5019,3.5109,3.5155,3.5226,3.5302,3.5421,3.5408,3.5461,3.5481,3.554,3.5638,3.5518,3.5521,3.5538,3.5776,3.5786,3.5805,3.5639,3.5642,3.5645,3.5769,0,3.471,3.4869,3.49,3.5038,3.5117,3.5126,3.5204,3.5267,3.5304,3.5377,3.5417,3.5501,3.5477,3.5509,3.5568,3.5614,3.5686,3.5605,3.571,3.5713,3.5689,3.5827,3.5838,3.5952,3.5786,3.5789,3.5791,0,3.4869,3.4942,3.5089,3.5167,3.5202,3.5271,3.5356,3.5425,3.5498,3.552,3.5579,3.5593,3.5687,3.5643,3.5773,3.5718,3.5762,3.5791,3.5796,3.5807,3.5757,3.584,3.5989,3.6006,3.5817,3.5815,3.5813,0,3.4942,3.5078,3.5183,3.5221,3.5315,3.5364,3.5406,3.5475,3.5527,3.5601,3.5635,3.5719,3.5766,3.5831,3.5867,3.5832,3.5995,3.5954,3.6016,3.6015,3.6049,3.6046,3.6206,3.6079,3.6079,3.6078,3.6078,0,3.5069,3.5158,3.5217,3.5281,3.5381,3.5416,3.5514,3.5555,3.5617,3.569,3.5703,3.5771,3.5815,3.5889,3.5918,3.6022,3.6043,3.6063,3.607,3.6062,3.6059,3.6091,3.6084,3.6083,3.6082,3.6081,3.608,0,3.5168,3.521,3.5325,3.5405,3.5427,3.5497,3.5566,3.5629,3.5666,3.5758,3.5782,3.5839,3.5928,3.5971,3.6081,3.61,3.6217,3.6219,3.6192,3.6195,3.6254,3.6247,3.6439,3.6466,3.6322,3.6323,3.6324,0,3.5246,3.5314,3.5402,3.5451,3.5494,3.5574,3.5626,3.5663,3.5718,3.5805,3.5858,3.5947,3.602,3.6161,3.6213,3.6298,3.6301,3.6363,3.6314,3.6304,3.6302,3.6297,3.6303,3.6371,3.6373,3.6374,3.6375,0,3.538,3.5398,3.5473,3.5557,3.5619,3.5687,3.5753,3.5793,3.584,3.5901,3.5991,3.6048,3.616,3.6249,3.6337,3.638,3.6386,3.639,3.6408,3.64,3.6382,3.6392,3.6215,3.6385,3.6384,3.6383,3.6383,3.6382,3.547,3.5532,3.5602,3.5686,3.574,3.5801,3.5865,3.5909,3.5985,3.6078,3.6096,3.6192,3.6263,3.6381,3.6428,3.6504,3.649,3.6517,3.6524,3.653,3.6532,3.637,3.652,3.652,3.652,3.6519,3.6519,0,3.5605,3.5651,3.5727,3.5819,3.5885,3.5884,3.5958,3.6013,3.6097,3.6163,3.6234,3.6338,3.6424,3.6483,3.657,3.6619,3.6624,3.6641,3.6637,3.6647,3.654,3.6515,3.6636,3.6635,3.6635,3.6635,3.6635,3.6635,3.5682,3.5786,3.5812,3.5942,3.5988,3.6081,3.6123,3.618,3.6232,3.6348,3.6419,3.6456,3.6519,3.6611,3.669,3.6705,3.6736,3.6753,3.6768,3.6667,3.6655,3.6643,3.6619,3.676,3.676,3.6869,3.687,3.687]},{"header":{"parameterUnit":"m.s-1","parameterCategory":1,"la1":30.2991,"la2":30.254,"lo1":-89.0895,"lo2":-89.0444,"dy":0.0017,"dx":0.0017,"nx":28,"ny":28,"refTime":"2025-11-14T09:00:00:Z","depth":0,"parameterNumber":3,"parameterNumberName":"V-component_of_WINDS"},"data":[0,0,0,0,0,0,0,0,0,0,0,0,0,0,0,0,0,0,0,0,0,0,0,0,0,0,0,0,0,0,0,0,0,0,0,0,0,0,0,0,0,0,0,0,0,0,0,0,0,0,0,0,0,0,0,0,0,0,1.3626,1.3627,0,1.3648,1.3648,1.3649,1.3622,1.3621,1.362,1.3619,1.3641,1.3642,1.3644,0,0,0,0,0,0,0,0,0,0,0,0,0,1.356,1.3562,1.3626,1.3627,1.3627,1.3648,1.3649,1.3649,1.3622,1.3621,1.3619,1.3618,1.3641,1.3642,1.3644,0,0,0,0,0,0,0,0,0,0,0,0,0,1.3586,1.3562,1.3626,1.3616,1.3615,1.3648,1.3649,1.3649,1.3622,1.3621,1.3619,1.3618,1.364,1.3642,1.3644,1.3688,0,0,1.3651,1.3652,0,0,0,0,0,0,0,0,1.3585,1.3589,1.3617,1.3617,1.3616,1.3631,1.3633,1.3662,1.3622,1.362,1.3619,1.3617,1.3639,1.3641,1.3648,1.3689,1.369,1.3652,1.3653,1.3654,1.3655,0,0,0,0,0,0,0,1.3583,1.3588,1.3635,1.3618,1.3617,1.361,1.3612,1.3639,1.3637,1.362,1.3618,1.3621,1.3638,1.3646,1.3649,1.3691,1.3651,1.3654,1.3655,1.3656,1.3768,1.3769,0,0,0,0,0,0,1.3583,1.3586,1.3634,1.3636,1.3597,1.3612,1.3615,1.3628,1.3637,1.3637,1.3622,1.3619,1.3643,1.3646,1.3649,1.3701,1.3654,1.3656,1.3657,1.3766,1.3768,1.377,0,0,0,0,0,0,1.3581,1.3587,1.3633,1.3611,1.3616,1.3615,1.363,1.3629,1.3637,1.3639,1.3638,1.3631,1.3642,1.3646,1.3679,1.3702,1.3657,1.3659,1.3764,1.3767,1.3769,1.3805,0,0,0,0,0,0,1.358,1.3587,1.3604,1.3611,1.3617,1.3663,1.3631,1.363,1.3641,1.3638,1.3647,1.3647,1.3641,1.3675,1.3681,1.3704,1.3661,1.3762,1.3765,1.3768,1.3802,1.3809,1.3814,0,0,0,0,0,1.3577,1.3614,1.3605,1.3611,1.3639,1.3664,1.3668,1.3661,1.3643,1.366,1.3661,1.3646,1.3698,1.3679,1.3685,1.3709,1.3761,1.3764,1.3768,1.3799,1.3807,1.3814,0,0,0,0,0,0,1.3609,1.3614,1.3605,1.3645,1.3654,1.366,1.3681,1.367,1.3684,1.3681,1.3671,1.3674,1.3708,1.3712,1.369,1.3751,1.3726,1.3731,1.3748,1.3756,1.3762,1.3761,1.3663,0,0,0,0,0,1.3621,1.3642,1.3645,1.3679,1.3684,1.3682,1.3693,1.3686,1.3696,1.37,1.3703,1.3713,1.3731,1.3744,1.376,1.3802,1.3803,1.3821,1.3827,1.3832,1.3837,1.3859,1.3867,1.3782,1.3782,1.3781,0,0,1.3645,1.3651,1.3664,1.3686,1.3693,1.3714,1.3686,1.3709,1.3725,1.3704,1.3734,1.3737,1.3747,1.3784,1.3801,1.3788,1.3861,1.3837,1.3841,1.3843,1.3863,1.3871,1.3879,1.3784,1.3784,1.3783,0,0,1.3701,1.3707,1.3736,1.3743,1.3753,1.3751,1.3758,1.3765,1.3766,1.3797,1.3781,1.3799,1.3831,1.3838,1.3846,1.3903,1.3891,1.3909,1.3941,1.3962,1.3969,1.3975,1.3995,1.4003,1.3913,1.3913,1.3913,0,1.373,1.3762,1.3753,1.3777,1.3787,1.3768,1.3797,1.3805,1.382,1.3827,1.3813,1.3852,1.3857,1.3895,1.3909,1.3916,1.3924,1.3908,1.3969,1.3975,1.398,1.3999,1.4007,1.3916,1.3915,1.3915,1.3915,0,1.3797,1.3819,1.3841,1.3856,1.3868,1.3895,1.389,1.3903,1.3895,1.3894,1.3925,1.3931,1.3949,1.3957,1.395,1.3994,1.3986,1.397,1.3945,1.3991,1.4008,1.4016,1.3919,1.3918,1.3917,1.3917,0,0,1.3874,1.3883,1.3891,1.3898,1.3907,1.3924,1.3949,1.3966,1.3978,1.3988,1.401,1.4036,1.4022,1.4031,1.4024,1.4042,1.4087,1.4024,1.4025,1.4036,1.4136,1.4148,1.4157,1.4078,1.4079,1.408,1.4135,0,1.393,1.3974,1.3967,1.401,1.403,1.4011,1.4033,1.4041,1.4041,1.4057,1.4056,1.4076,1.4055,1.406,1.4078,1.4078,1.4107,1.4074,1.4098,1.4099,1.4096,1.4166,1.4179,1.423,1.4142,1.4143,1.4144,0,1.4001,1.4014,1.4059,1.4065,1.4073,1.4093,1.4107,1.4123,1.4131,1.413,1.4139,1.4129,1.4154,1.4127,1.4161,1.4139,1.4148,1.4149,1.4151,1.4154,1.4125,1.4171,1.4246,1.4254,1.4155,1.4154,1.4153,0,1.4053,1.4082,1.4113,1.4118,1.4125,1.414,1.4144,1.415,1.416,1.4173,1.4179,1.4194,1.4203,1.4215,1.4208,1.4189,1.4243,1.4216,1.4242,1.4243,1.4255,1.4255,1.4334,1.426,1.426,1.426,1.426,0,1.4116,1.4145,1.4136,1.4155,1.4186,1.4176,1.4207,1.4208,1.4214,1.4233,1.4217,1.4235,1.4225,1.4242,1.4237,1.4265,1.4269,1.4268,1.4267,1.427,1.427,1.4277,1.4273,1.4262,1.4262,1.4261,1.4261,0,1.418,1.4176,1.4208,1.4211,1.4213,1.4236,1.4238,1.4256,1.4254,1.4277,1.4282,1.4279,1.4297,1.4292,1.4312,1.4309,1.4345,1.4339,1.4343,1.4341,1.4368,1.4366,1.4454,1.4465,1.4384,1.4385,1.4386,0,1.4221,1.4243,1.4248,1.426,1.4264,1.4283,1.4293,1.4283,1.4295,1.4305,1.4321,1.4338,1.4352,1.4383,1.4382,1.4397,1.4391,1.4421,1.4393,1.4396,1.4392,1.4391,1.4393,1.4427,1.4428,1.4429,1.4429,0,1.4295,1.4291,1.4306,1.4321,1.4334,1.4345,1.4354,1.4364,1.4355,1.4369,1.4388,1.4398,1.4418,1.4436,1.4449,1.4452,1.444,1.4438,1.4445,1.4449,1.445,1.445,1.4358,1.4436,1.4435,1.4435,1.4435,1.4434,1.4349,1.4366,1.4373,1.4391,1.4397,1.4406,1.4422,1.4421,1.4437,1.4453,1.4446,1.4468,1.4474,1.4491,1.4496,1.4513,1.4501,1.4511,1.4514,1.4517,1.452,1.4447,1.4515,1.4515,1.4515,1.4514,1.4514,0,1.4421,1.4424,1.444,1.4454,1.4468,1.4454,1.4463,1.4475,1.4495,1.4502,1.4515,1.4537,1.4553,1.4553,1.4568,1.4581,1.4576,1.4586,1.4585,1.4586,1.4529,1.4522,1.459,1.459,1.459,1.459,1.459,1.459,1.4461,1.449,1.4487,1.4519,1.4522,1.4543,1.4549,1.4557,1.4563,1.4588,1.4601,1.4601,1.4605,1.462,1.4634,1.4634,1.464,1.4652,1.465,1.4597,1.459,1.4583,1.4576,1.4654,1.4654,1.4705,1.4705,1.4705]}]]